WetterOnline ( http://www.wetteronline.de )

Wetter aktuell Cuxhaven

Aktuelles Wetter: Cuxhaven (12m)

6-stündlich | Neueste Meldungen
Ortszeit Temperatur Wetter
Do, 19.07. 8:00 18.8° C wolkig
Do, 19.07. 2:00 17.8° C leicht bewölkt
Mi, 18.07. 20:00 19.0° C wolkenlos
Mi, 18.07. 14:00 20.2° C wolkig
Mi, 18.07. 8:00 18.6° C bedeckt
Mi, 18.07. 2:00 16.9° C wolkig
Di, 17.07. 20:00 21.4° C wolkenlos
Di, 17.07. 14:00 25.1° C leicht bewölkt
Ortszeit Temperatur Wetter
Do, 19.07. 13:30 21.0° C leicht bewölkt
Do, 19.07. 13:20 21.0° C leicht bewölkt
Do, 19.07. 13:10 20.9° C fast wolkenlos
Do, 19.07. 13:00 20.7° C wolkig
Do, 19.07. 12:50 20.7° C bedeckt
Do, 19.07. 12:40 20.1° C wolkig
Do, 19.07. 12:30 20.2° C wolkig
Do, 19.07. 12:00 20.4° C fast wolkenlos
Do, 19.07. 11:30 19.7° C wolkenlos
Do, 19.07. 11:00 20.3° C wolkenlos
Do, 19.07. 10:30 19.6° C wolkig
Ortszeit Relative Feuchte Sichtweite
Do, 19.07. 8:00 76% 35 km
Do, 19.07. 2:00 74% 70 km
Mi, 18.07. 20:00 73% 23 km
Mi, 18.07. 14:00 65% 5.0 km
Mi, 18.07. 8:00 81% 30 km
Mi, 18.07. 2:00 88% 17 km
Di, 17.07. 20:00 71% 20 km
Di, 17.07. 14:00 58% 4.3 km
Ortszeit Relative Feuchte Sichtweite
Do, 19.07. 13:30 64% 10 km
Do, 19.07. 13:20 64% -
Do, 19.07. 13:10 65% -
Do, 19.07. 13:00 66% 29 km
Do, 19.07. 12:50 66% -
Do, 19.07. 12:40 67% -
Do, 19.07. 12:30 65% 13 km
Do, 19.07. 12:00 61% 16 km
Do, 19.07. 11:30 64% 7 km
Do, 19.07. 11:00 63% 9 km
Do, 19.07. 10:30 66% 20 km
Ortszeit Niederschlagsmenge Niederschlagsart
Do, 19.07. 8:00 0.0 l/m2 in 12 Std. -
Do, 19.07. 2:00 0.0 l/m2 in 6 Std. -
Mi, 18.07. 20:00 0.0 l/m2 in 12 Std. -
Mi, 18.07. 14:00 0.0 l/m2 in 6 Std. -
Mi, 18.07. 8:00 0.3 l/m2 in 12 Std. Regen
Mi, 18.07. 2:00 0.3 l/m2 in 6 Std. Regen
Di, 17.07. 20:00 0.0 l/m2 in 12 Std. -
Di, 17.07. 14:00 0.0 l/m2 in 6 Std. -
Ortszeit Niederschlagsmenge Niederschlagsart
Do, 19.07. 13:30 0.0 l/m2 in 1 Std. -
Do, 19.07. 13:20 keine Meldung -
Do, 19.07. 13:10 keine Meldung -
Do, 19.07. 13:00 0.0 l/m2 in 1 Std. -
Do, 19.07. 12:50 keine Meldung -
Do, 19.07. 12:40 keine Meldung -
Do, 19.07. 12:30 0.0 l/m2 in 1 Std. -
Do, 19.07. 12:00 0.0 l/m2 in 1 Std. -
Do, 19.07. 11:30 0.0 l/m2 in 1 Std. -
Do, 19.07. 11:00 0.0 l/m2 in 1 Std. -
Do, 19.07. 10:30 0.0 l/m2 in 1 Std. -
Ortszeit Stärke Spitze Richtung
km/h Bft. km/h Grad Sektor
Do, 19.07. 8:00 11 2 18 330° NW
Do, 19.07. 2:00 13 3 31 330° NW
Mi, 18.07. 20:00 25 4 40 320° NW
Mi, 18.07. 14:00 28 4 43 300° NW
Mi, 18.07. 8:00 22 4 36 300° NW
Mi, 18.07. 2:00 13 3 44 280° W
Di, 17.07. 20:00 28 4 46 290° W
Di, 17.07. 14:00 9 2 20 30° NO
Ortszeit Stärke Spitze Richtung
km/h Bft. km/h Grad Sektor
Do, 19.07. 13:30 18 3 25 330° NW
Do, 19.07. 13:20 18 3 - 330° NW
Do, 19.07. 13:10 17 3 - 330° NW
Do, 19.07. 13:00 11 2 20 330° NW
Do, 19.07. 12:50 11 2 - 330° NW
Do, 19.07. 12:40 14 3 - 330° NW
Do, 19.07. 12:30 13 3 19 330° NW
Do, 19.07. 12:00 9 2 19 330° NW
Do, 19.07. 11:30 7 2 14 340° N
Do, 19.07. 11:00 7 2 18 340° N
Do, 19.07. 10:30 9 2 19 330° NW
Ortszeit Untergrenze Bedeckung Gattung
total tief tief mittel hoch
Do, 19.07. 8:00 510 m 4/8 6/8 - - -
Do, 19.07. 2:00 2100 m 2/8 2/8 - - -
Mi, 18.07. 20:00 - 0/8 0/8 - - -
Mi, 18.07. 14:00 660 m 8/8 6/8 - - -
Mi, 18.07. 8:00 420 m 8/8 8/8 - - -
Mi, 18.07. 2:00 390 m 5/8 5/8 - - -
Di, 17.07. 20:00 - 0/8 0/8 - - -
Di, 17.07. 14:00 9000 m 7/8 0/8 - - -
Ortszeit Bedeckungsgrad in Achtel und Wolkenuntergrenze
Do, 19.07. 13:30 2(1800m)
Do, 19.07. 13:20 2(1800m)
Do, 19.07. 13:10 1(720m)
Do, 19.07. 13:00 3(690m) 3(1500m)
Do, 19.07. 12:50 9 9 9
Do, 19.07. 12:40 2(660m) 4(840m) 5(1500m)
Do, 19.07. 12:30 2(810m) 9 9
Do, 19.07. 12:00 1(780m) 9 9
Do, 19.07. 11:30 keine Wolken
Do, 19.07. 11:00 keine Wolken
Do, 19.07. 10:30 2(570m) 5(2100m)
Ortszeit Luftdruck NN (hPa) Tendenz (hPa in 3 Std.)
Do, 19.07. 8:00 1020 + 0,5
Do, 19.07. 2:00 1020 + 0,2
Mi, 18.07. 20:00 1019 - 0,2
Mi, 18.07. 14:00 1019 + 0,9
Mi, 18.07. 8:00 1017 + 0,8
Mi, 18.07. 2:00 1016 + 0,8
Di, 17.07. 20:00 1014 + 0,9
Di, 17.07. 14:00 1014 - 0,1
Ortszeit Luftdruck NN (hPa) Tendenz (hPa in 3 Std.)
Do, 19.07. 13:30 1020 - 0,2
Do, 19.07. 13:20 1020 keine Meldung
Do, 19.07. 13:10 1020 keine Meldung
Do, 19.07. 13:00 1020 0,0
Do, 19.07. 12:50 1020 keine Meldung
Do, 19.07. 12:40 1020 keine Meldung
Do, 19.07. 12:30 1020 0,0
Do, 19.07. 12:00 1020 + 0,2
Do, 19.07. 11:30 1020 + 0,2
Do, 19.07. 11:00 1020 + 0,2
Do, 19.07. 10:30 1020 + 0,4
Ortszeit Schneehöhe (cm)
Do, 19.07. 8:00 -
Do, 19.07. 2:00 -
Mi, 18.07. 20:00 -
Mi, 18.07. 14:00 -
Mi, 18.07. 8:00 -
Mi, 18.07. 2:00 -
Di, 17.07. 20:00 -
Di, 17.07. 14:00 -
Ortszeit Schneehöhe (cm)
Do, 19.07. 13:30 -
Do, 19.07. 13:20 -
Do, 19.07. 13:10 -
Do, 19.07. 13:00 -
Do, 19.07. 12:50 -
Do, 19.07. 12:40 -
Do, 19.07. 12:30 -
Do, 19.07. 12:00 -
Do, 19.07. 11:30 -
Do, 19.07. 11:00 -
Do, 19.07. 10:30 -
Link zu dieser Seite / Seite empfehlen

Das Wetter in ...